CW1411 Weather Reports


Display with metric or nautical units.
time (UTC)temp
F
wind
direction
speed
MPH
gust
MPH
rain 1hr
in
rain 24hr
in
rain mn
in
humidity
%
barometer
mb
20170720142418 79 5 0.0 1.0 0.00 0.00 0.00 81 1013.6
20170720141904 78 5 1.0 4.0 0.00 0.00 0.00 82 1013.5
20170720141358 78 5 1.0 4.0 0.00 0.00 0.00 82 1013.5
20170720140900 77 9 0.0 4.0 0.00 0.00 0.00 84 1013.5
20170720140400 77 5 0.0 4.0 0.00 0.00 0.00 85 1013.7
20170720135900 76 9 0.0 1.0 0.00 0.00 0.00 87 1013.6
20170720135352 76 5 0.0 1.0 0.00 0.00 0.00 89 1013.7
20170720134840 75 9 0.0 1.0 0.00 0.00 0.00 90 1013.7
20170720134339 75 5 0.0 0.0 0.00 0.00 0.00 91 1013.5
20170720133839 75 5 0.0 1.0 0.00 0.00 0.00 91 1013.5
20170720133336 75 5 0.0 1.0 0.00 0.00 0.00 92 1013.5
20170720132832 74 5 0.0 0.0 0.00 0.00 0.00 93 1013.4
20170720132329 74 9 0.0 0.0 0.00 0.00 0.00 93 1013.5
20170720131821 73 5 0.0 0.0 0.00 0.00 0.00 93 1013.7
20170720131320 73 5 0.0 3.0 0.00 0.00 0.00 94 1013.7
20170720130822 73 5 0.0 3.0 0.00 0.00 0.00 94 1013.7
20170720130322 73 5 0.0 0.0 0.00 0.00 0.00 95 1013.7
20170720125804 73 5 0.0 0.0 0.00 0.00 0.00 95 1013.6
20170720125306 72 9 0.0 1.0 0.00 0.00 0.00 95 1013.7
20170720124803 72 5 0.0 1.0 0.00 0.00 0.00 94 1013.6
20170720124256 72 5 0.0 0.0 0.00 0.00 0.00 95 1013.5
20170720123752 72 5 0.0 0.0 0.00 0.00 0.00 95 1013.5
20170720123254 71 9 0.0 0.0 0.00 0.00 0.00 95 1013.7
20170720122754 71 5 0.0 0.0 0.00 0.00 0.00 95 1013.9
20170720122254 71 5 0.0 1.0 0.00 0.00 0.00 95 1014.1
20170720121735 71 5 0.0 1.0 0.00 0.00 0.00 95 1014.1
20170720121226 70 9 0.0 1.0 0.00 0.00 0.00 95 1013.9
20170720120728 70 5 0.0 1.0 0.00 0.00 0.00 95 1013.8
20170720120227 70 5 0.0 1.0 0.00 0.00 0.00 95 1014.1
20170720115727 70 5 0.0 2.0 0.00 0.00 0.00 95 1013.9
20170720115225 70 5 0.0 2.0 0.00 0.00 0.00 95 1013.8
20170720114722 70 5 0.0 2.0 0.00 0.00 0.00 95 1013.6
20170720114222 69 5 0.0 2.0 0.00 0.00 0.00 95 1013.6
20170720113658 69 5 0.0 0.0 0.00 0.00 0.00 95 1013.4
20170720113157 69 5 0.0 0.0 0.00 0.00 0.00 95 1013.5
20170720112658 69 9 0.0 0.0 0.00 0.00 0.00 95 1013.7
20170720112145 69 5 0.0 0.0 0.00 0.00 0.00 94 1013.8
20170720111638 69 9 0.0 0.0 0.00 0.00 0.00 95 1014.0
20170720111127 69 5 0.0 0.0 0.00 0.00 0.00 95 1014.0
20170720110621 69 9 0.0 0.0 0.00 0.00 0.00 94 1014.0
20170720110120 69 5 0.0 0.0 0.00 0.00 0.00 94 1014.0
20170720105621 69 9 0.0 0.0 0.00 0.00 0.00 94 1014.1
20170720105120 68 5 0.0 0.0 0.00 0.00 0.00 95 1014.1
20170720104622 68 5 0.0 0.0 0.00 0.00 0.00 94 1014.2
20170720104120 68 5 0.0 0.0 0.00 0.00 0.00 94 1014.2
20170720103619 68 9 0.0 0.0 0.00 0.00 0.00 94 1014.2
20170720103119 68 5 0.0 0.0 0.00 0.00 0.00 94 1014.1
20170720102623 67 9 0.0 0.0 0.00 0.00 0.00 94 1014.0
20170720102116 67 9 0.0 0.0 0.00 0.00 0.00 94 1013.9
20170720101619 67 9 0.0 0.0 0.00 0.00 0.00 94 1013.7
20170720101115 67 5 0.0 0.0 0.00 0.00 0.00 94 1013.8
20170720100601 67 5 0.0 0.0 0.00 0.00 0.00 94 1013.9
20170720100100 67 5 0.0 1.0 0.00 0.00 0.00 94 1013.8
20170720095600 67 9 0.0 1.0 0.00 0.00 0.00 94 1013.7
20170720095057 67 9 0.0 0.0 0.00 0.00 0.00 93 1013.7
20170720094554 67 5 0.0 0.0 0.00 0.00 0.00 93 1013.6
20170720094051 67 5 0.0 0.0 0.00 0.00 0.00 93 1013.5
20170720093554 67 9 0.0 0.0 0.00 0.00 0.00 93 1013.5
20170720093053 67 5 0.0 0.0 0.00 0.00 0.00 93 1013.5
20170720092540 67 5 0.0 0.0 0.00 0.00 0.00 93 1013.7
20170720092020 67 5 0.0 0.0 0.00 0.00 0.00 93 1013.7
20170720090947 67 5 0.0 0.0 0.00 0.00 0.00 93 1013.4
20170720090435 67 5 0.0 0.0 0.00 0.00 0.00 93 1013.4
20170720085929 67 5 0.0 0.0 0.00 0.00 0.00 93 1013.4
20170720085353 67 5 0.0 0.0 0.00 0.00 0.00 93 1013.4
20170720084819 67 5 0.0 0.0 0.00 0.00 0.00 93 1013.4
20170720084319 67 5 0.0 0.0 0.00 0.00 0.00 93 1013.3
20170720083810 67 5 0.0 0.0 0.00 0.00 0.00 93 1013.3
20170720083309 67 5 0.0 0.0 0.00 0.00 0.00 93 1013.3
20170720082733 67 5 0.0 0.0 0.00 0.00 0.00 93 1013.3
20170720082151 67 5 0.0 0.0 0.00 0.00 0.00 93 1013.4
20170720081631 67 5 0.0 0.0 0.00 0.00 0.00 93 1013.5
20170720081130 67 5 0.0 0.0 0.00 0.00 0.00 93 1013.4
20170720080632 67 5 0.0 0.0 0.00 0.00 0.00 93 1013.4
20170720080128 68 5 0.0 0.0 0.00 0.00 0.00 93 1013.4
20170720075628 68 5 0.0 0.0 0.00 0.00 0.00 93 1013.3
20170720075127 68 5 0.0 0.0 0.00 0.00 0.00 93 1013.4
20170720074613 68 5 0.0 0.0 0.00 0.00 0.00 93 1013.4
20170720074113 67 5 0.0 0.0 0.00 0.00 0.00 93 1013.5
20170720073603 67 5 0.0 0.0 0.00 0.00 0.00 92 1013.5
20170720073049 67 5 0.0 0.0 0.00 0.00 0.00 92 1013.7
20170720072535 67 5 0.0 0.0 0.00 0.00 0.00 92 1013.7
20170720072027 67 5 0.0 0.0 0.00 0.00 0.00 92 1013.7
20170720071527 67 5 0.0 0.0 0.00 0.00 0.00 92 1013.6
20170720071027 68 5 0.0 0.0 0.00 0.00 0.00 92 1013.4
20170720070505 68 5 0.0 0.0 0.00 0.00 0.00 92 1013.7
20170720065934 68 5 0.0 0.0 0.00 0.00 0.00 92 1013.4
20170720065437 68 5 0.0 0.0 0.00 0.00 0.00 92 1013.6
20170720064916 68 5 0.0 0.0 0.00 0.00 0.00 92 1013.5
20170720064415 68 5 0.0 0.0 0.00 0.00 0.00 92 1013.4
20170720063835 68 5 0.0 0.0 0.00 0.00 0.00 92 1013.6
20170720063331 68 5 0.0 0.0 0.00 0.00 0.00 92 1013.6
20170720062825 68 5 0.0 0.0 0.00 0.00 0.00 92 1013.7
20170720062309 68 5 0.0 0.0 0.00 0.00 0.00 92 1013.7
20170720061756 68 5 0.0 0.0 0.00 0.00 0.00 92 1013.7
20170720061220 68 5 0.0 0.0 0.00 0.00 0.00 92 1013.8
20170720060719 68 5 0.0 0.0 0.00 0.00 0.00 91 1014.0
20170720060155 68 5 0.0 0.0 0.00 0.00 0.00 91 1013.9
20170720055655 68 5 0.0 0.0 0.00 0.00 0.00 91 1013.9
20170720055131 68 5 0.0 0.0 0.00 0.00 0.00 91 1013.8
20170720054628 68 5 0.0 0.0 0.00 0.00 0.00 91 1014.0
20170720054113 68 5 0.0 0.0 0.00 0.00 0.00 91 1014.1
20170720053602 68 5 0.0 0.0 0.00 0.00 0.00 91 1014.1
20170720053059 68 5 0.0 0.0 0.00 0.00 0.00 91 1014.1
20170720052559 68 5 0.0 0.0 0.00 0.00 0.00 91 1014.0
20170720052037 69 5 0.0 0.0 0.00 0.00 0.00 91 1014.0
20170720051531 69 5 0.0 0.0 0.00 0.00 0.00 90 1014.1
20170720051027 69 5 0.0 0.0 0.00 0.00 0.00 90 1014.1
20170720050526 69 5 0.0 0.0 0.00 0.00 0.00 90 1014.2
20170720050027 69 5 0.0 0.0 0.00 0.00 0.00 90 1014.2
20170720045515 69 5 0.0 0.0 0.00 0.00 0.00 90 1014.2
20170720045013 69 5 0.0 0.0 0.00 0.00 0.00 90 1014.1
20170720044513 69 5 0.0 0.0 0.00 0.00 0.00 90 1014.2
20170720043921 69 5 0.0 0.0 0.00 0.00 0.00 89 1014.3
20170720043355 69 5 0.0 0.0 0.00 0.00 0.00 89 1014.3
20170720042840 69 5 0.0 0.0 0.00 0.00 0.00 89 1014.3
20170720042340 69 5 0.0 0.0 0.00 0.00 0.00 89 1014.3
20170720041817 69 5 0.0 0.0 0.00 0.00 0.00 89 1014.3
20170720041312 69 5 0.0 0.0 0.00 0.00 0.00 89 1014.3
20170720040800 70 5 0.0 0.0 0.00 0.00 0.00 89 1014.3
20170720040246 70 5 0.0 0.0 0.00 0.00 0.00 88 1014.3
20170720035728 70 5 0.0 0.0 0.00 0.00 0.00 88 1014.3
20170720035218 70 5 0.0 0.0 0.00 0.00 0.00 88 1014.2
20170720034711 70 5 0.0 0.0 0.00 0.00 0.00 88 1014.2
20170720034201 70 5 0.0 0.0 0.00 0.00 0.00 88 1014.1
20170720033649 70 5 0.0 0.0 0.00 0.00 0.00 88 1014.2
20170720033132 71 5 0.0 0.0 0.00 0.00 0.00 87 1014.2
20170720032632 71 5 0.0 0.0 0.00 0.00 0.00 87 1014.4
20170720032132 71 5 0.0 0.0 0.00 0.00 0.00 87 1014.3
20170720031633 71 5 0.0 0.0 0.00 0.00 0.00 87 1014.4
20170720031133 71 5 0.0 0.0 0.00 0.00 0.00 86 1014.4
20170720030633 71 5 0.0 0.0 0.00 0.00 0.00 86 1014.4
20170720030128 72 5 0.0 0.0 0.00 0.00 0.00 86 1014.4
20170720025611 72 5 0.0 0.0 0.00 0.00 0.00 85 1014.4
20170720025104 72 5 0.0 0.0 0.00 0.00 0.00 85 1014.5
20170720024600 72 5 0.0 0.0 0.00 0.00 0.00 85 1014.5
20170720024040 73 5 0.0 0.0 0.00 0.00 0.00 85 1014.5
20170720023540 73 5 0.0 0.0 0.00 0.00 0.00 84 1014.4
20170720022958 73 5 0.0 0.0 0.00 0.00 0.00 84 1014.4
20170720022420 73 5 0.0 0.0 0.00 0.00 0.00 84 1014.4
20170720021847 73 5 0.0 0.0 0.00 0.00 0.00 84 1014.3
20170720021338 73 5 0.0 0.0 0.00 0.00 0.00 83 1014.3
20170720020832 74 5 0.0 0.0 0.00 0.00 0.00 83 1014.3
20170720020328 74 5 0.0 0.0 0.00 0.00 0.00 83 1014.2
20170720015800 74 5 0.0 0.0 0.00 0.00 0.00 83 1014.2
20170720015243 74 5 0.0 0.0 0.00 0.00 0.00 82 1014.2
20170720014732 74 5 0.0 0.0 0.00 0.00 0.00 82 1014.2
20170720014232 75 5 0.0 0.0 0.00 0.00 0.00 82 1014.1
20170720013726 75 5 0.0 0.0 0.00 0.00 0.00 82 1014.0
20170720013226 75 5 0.0 0.0 0.00 0.00 0.00 81 1014.1
20170720012728 75 5 0.0 0.0 0.00 0.00 0.00 80 1014.1
20170720012228 75 5 0.0 0.0 0.00 0.00 0.00 80 1014.1
20170720011728 75 5 0.0 0.0 0.00 0.00 0.00 80 1014.1
20170720011228 76 5 0.0 0.0 0.00 0.00 0.00 80 1013.9
20170720010716 76 5 0.0 0.0 0.00 0.00 0.00 79 1013.9
20170720010216 76 5 0.0 0.0 0.00 0.00 0.00 79 1013.9
20170720005705 76 5 0.0 0.0 0.00 0.00 0.00 79 1013.8
20170720005152 76 5 0.0 0.0 0.00 0.00 0.00 79 1013.9
20170720004640 77 5 0.0 0.0 0.00 0.00 0.00 78 1013.9
20170720004121 77 5 0.0 0.0 0.00 0.00 0.00 77 1013.9
20170720003620 77 5 0.0 0.0 0.00 0.00 0.00 77 1013.9
20170720003110 77 5 0.0 0.0 0.00 0.00 0.00 76 1014.0
20170720002607 77 9 0.0 0.0 0.00 0.00 0.00 77 1013.9
20170720002108 78 5 0.0 0.0 0.00 0.00 0.00 76 1013.8
20170720001602 78 5 0.0 0.0 0.00 0.00 0.00 76 1013.7
20170720001053 78 9 0.0 0.0 0.00 0.00 0.00 75 1013.7
20170720000533 78 9 0.0 0.0 0.00 0.00 0.00 74 1013.6
20170720000026 78 5 0.0 0.0 0.00 0.00 0.00 73 1013.5
20170719235527 79 9 0.0 0.0 0.00 0.00 0.00 73 1013.5
20170719235029 79 5 0.0 0.0 0.00 0.00 0.00 73 1013.5
20170719234517 79 5 0.0 0.0 0.00 0.00 0.00 71 1013.4
20170719234006 79 9 0.0 0.0 0.00 0.00 0.00 71 1013.4
20170719233508 80 5 0.0 0.0 0.00 0.00 0.00 70 1013.4
20170719233000 80 9 0.0 0.0 0.00 0.00 0.00 69 1013.6
20170719232450 80 9 0.0 0.0 0.00 0.00 0.00 68 1013.5
20170719231952 81 5 0.0 5.0 0.00 0.00 0.00 67 1013.5
20170719231452 81 5 0.0 5.0 0.00 0.00 0.00 65 1013.5
20170719230949 82 5 0.0 4.0 0.00 0.00 0.00 65 1013.5
20170719230450 82 5 0.0 4.0 0.00 0.00 0.00 63 1013.4
20170719225950 82 5 0.0 3.0 0.00 0.00 0.00 65 1013.3
20170719225449 83 5 0.0 5.0 0.00 0.00 0.00 64 1013.4
20170719224948 83 5 1.0 10.0 0.00 0.00 0.00 60 1013.4
20170719224447 83 5 1.0 10.0 0.00 0.00 0.00 61 1013.4
20170719223938 83 5 0.0 6.0 0.00 0.00 0.00 67 1013.4
20170719223429 83 5 1.0 6.0 0.00 0.00 0.00 65 1013.3
20170719222925 82 5 1.0 6.0 0.00 0.00 0.00 63 1013.3
20170719222426 82 9 1.0 6.0 0.00 0.00 0.00 66 1013.3
20170719221912 82 5 0.0 4.0 0.00 0.00 0.00 68 1013.4
20170719221414 82 5 0.0 3.0 0.00 0.00 0.00 69 1013.4
20170719220912 82 5 0.0 1.0 0.00 0.00 0.00 69 1013.3
20170719220412 82 5 0.0 1.0 0.00 0.00 0.00 68 1013.4
20170719215912 82 5 0.0 3.0 0.00 0.00 0.00 67 1013.4
20170719215403 83 9 0.0 3.0 0.00 0.00 0.00 66 1013.4
20170719214902 83 9 0.0 0.0 0.00 0.00 0.00 64 1013.4
20170719214401 84 9 0.0 1.0 0.00 0.00 0.00 64 1013.3
20170719213853 84 9 0.0 4.0 0.00 0.00 0.00 61 1013.4
20170719213334 85 9 0.0 4.0 0.00 0.00 0.00 60 1013.4
20170719212836 85 9 0.0 2.0 0.00 0.00 0.00 58 1013.4
20170719212333 85 5 0.0 5.0 0.00 0.00 0.00 57 1013.4
20170719211830 86 5 1.0 10.0 0.00 0.00 0.00 57 1013.5
20170719211332 86 5 1.0 10.0 0.00 0.00 0.00 58 1013.6
20170719210828 86 9 1.0 7.0 0.00 0.00 0.00 59 1013.7
20170719210329 87 5 1.0 7.0 0.00 0.00 0.00 54 1013.6
20170719205829 87 5 2.0 12.0 0.00 0.00 0.00 52 1013.7
20170719205329 88 9 1.0 12.0 0.00 0.00 0.00 53 1013.7
20170719204829 88 5 1.0 6.0 0.00 0.00 0.00 53 1013.7
20170719204328 88 9 1.0 6.0 0.00 0.00 0.00 53 1013.7
20170719203830 88 5 1.0 6.0 0.00 0.00 0.00 56 1013.7
20170719203325 88 5 1.0 6.0 0.00 0.00 0.00 57 1013.7
20170719202826 88 5 1.0 6.0 0.00 0.00 0.00 54 1013.7
20170719202324 88 5 1.0 7.0 0.00 0.00 0.00 55 1013.7
20170719201822 88 5 1.0 7.0 0.00 0.00 0.00 54 1013.8
20170719201324 88 5 1.0 5.0 0.00 0.00 0.00 58 1013.8
20170719200822 88 9 1.0 5.0 0.00 0.00 0.00 55 1013.8
20170719200319 88 5 1.0 7.0 0.00 0.00 0.00 54 1013.8
20170719195810 88 5 1.0 7.0 0.00 0.00 0.00 56 1013.7
20170719195310 88 9 2.0 6.0 0.00 0.00 0.00 55 1013.8
20170719194810 88 9 2.0 11.0 0.00 0.00 0.00 54 1013.9
20170719194310 88 5 1.0 11.0 0.00 0.00 0.00 54 1013.9
20170719193807 88 5 1.0 10.0 0.00 0.00 0.00 55 1014.0
20170719193248 87 5 1.0 10.0 0.00 0.00 0.00 56 1014.0
20170719192746 87 5 2.0 10.0 0.00 0.00 0.00 53 1014.1
20170719192240 87 5 2.0 10.0 0.00 0.00 0.00 54 1014.1
20170719191739 87 9 1.0 6.0 0.00 0.00 0.00 53 1014.1
20170719191240 88 5 1.0 10.0 0.00 0.00 0.00 55 1014.1
20170719190734 88 9 1.0 10.0 0.00 0.00 0.00 54 1014.1
20170719190232 88 5 1.0 7.0 0.00 0.00 0.00 54 1014.1
20170719185734 87 5 1.0 10.0 0.00 0.00 0.00 52 1014.1
20170719185229 87 5 1.0 10.0 0.00 0.00 0.00 53 1014.2
20170719184725 87 5 2.0 10.0 0.00 0.00 0.00 54 1014.2
20170719184226 87 9 2.0 10.0 0.00 0.00 0.00 52 1014.2
20170719183733 87 5 3.0 10.0 0.00 0.00 0.00 54 1014.2
20170719183222 87 5 1.0 10.0 0.00 0.00 0.00 53 1014.2
20170719182724 88 5 1.0 12.0 0.00 0.00 0.00 56 1014.3
20170719182216 87 5 2.0 12.0 0.00 0.00 0.00 54 1014.3
20170719181702 87 5 2.0 10.0 0.00 0.00 0.00 53 1014.3
20170719181203 87 5 2.0 9.0 0.00 0.00 0.00 55 1014.4
20170719180703 87 9 1.0 7.0 0.00 0.00 0.00 57 1014.4
20170719180159 87 9 1.0 10.0 0.00 0.00 0.00 60 1014.4
20170719175700 86 5 1.0 10.0 0.00 0.00 0.00 58 1014.5
20170719175157 86 5 1.0 11.0 0.00 0.00 0.00 58 1014.5
20170719174658 86 5 1.0 11.0 0.00 0.00 0.00 59 1014.6
20170719174200 86 9 1.0 6.0 0.00 0.00 0.00 59 1014.6
20170719173700 86 9 2.0 7.0 0.00 0.00 0.00 62 1014.7
20170719173157 85 5 1.0 14.0 0.00 0.00 0.00 60 1014.7
20170719172649 85 5 1.0 14.0 0.00 0.00 0.00 60 1014.7
20170719172148 85 5 1.0 9.0 0.00 0.00 0.00 60 1014.7
20170719171647 86 5 1.0 6.0 0.00 0.00 0.00 61 1014.7
20170719171145 86 9 1.0 6.0 0.00 0.00 0.00 61 1014.8
20170719170645 85 5 1.0 6.0 0.00 0.00 0.00 61 1014.8
20170719170144 85 5 1.0 6.0 0.00 0.00 0.00 63 1014.9
20170719165642 85 5 1.0 6.0 0.00 0.00 0.00 62 1015.0
20170719165139 85 5 1.0 7.0 0.00 0.01 0.00 64 1015.1
20170719164630 85 5 2.0 13.0 0.00 0.01 0.00 61 1015.1
20170719164131 85 5 2.0 13.0 0.00 0.01 0.00 62 1015.1
20170719163628 85 5 2.0 10.0 0.00 0.01 0.00 65 1015.1
20170719163129 85 5 1.0 7.0 0.00 0.01 0.00 64 1015.2
20170719162625 84 5 1.0 7.0 0.00 0.01 0.00 65 1015.2
20170719162120 85 5 1.0 7.0 0.00 0.01 0.00 62 1015.3
20170719161621 85 5 1.0 5.0 0.00 0.01 0.00 64 1015.3
20170719161116 85 5 1.0 5.0 0.00 0.01 0.00 63 1015.3
20170719160618 85 5 1.0 7.0 0.00 0.01 0.00 64 1015.3
20170719160115 85 5 1.0 7.0 0.00 0.01 0.00 64 1015.3
20170719155613 84 9 0.0 4.0 0.00 0.01 0.00 67 1015.3
20170719155107 84 5 0.0 3.0 0.00 0.01 0.00 66 1015.4
20170719154605 83 9 0.0 1.0 0.00 0.01 0.00 66 1015.4
20170719154055 83 9 0.0 3.0 0.00 0.01 0.00 68 1015.4
20170719153552 83 5 0.0 4.0 0.00 0.01 0.00 67 1015.5
20170719153044 83 5 0.0 4.0 0.00 0.01 0.00 67 1015.5
20170719152544 83 5 0.0 1.0 0.00 0.01 0.00 68 1015.5
20170719152045 83 5 0.0 2.0 0.00 0.01 0.00 69 1015.5
20170719151530 82 9 0.0 1.0 0.00 0.01 0.00 71 1015.6
20170719151028 82 5 0.0 1.0 0.00 0.01 0.00 68 1015.6
20170719150522 82 5 0.0 1.0 0.00 0.01 0.00 70 1015.6
20170719150013 82 9 0.0 0.0 0.00 0.01 0.00 72 1015.6
20170719145515 81 5 0.0 1.0 0.00 0.01 0.00 72 1015.7
20170719145010 81 5 0.0 1.0 0.00 0.01 0.00 74 1015.6
20170719144511 80 5 0.0 1.0 0.00 0.01 0.00 73 1015.5
20170719144009 80 9 0.0 3.0 0.00 0.01 0.00 75 1015.7
20170719143511 79 5 1.0 3.0 0.00 0.01 0.00 77 1015.8
20170719143011 78 5 0.0 3.0 0.00 0.01 0.00 78 1015.6